Location: Street
(51.1247°N, 2.7429°W)
Time: 09:58:27
(UTC+00:00)

Tiros 1 - Pass Details

Date: 29 November 2020
Orbit: 630 x 663 km, 48.4° (Epoch: 21 January)

Event Time Altitude Azimuth Distance (km) Brightness Sun altitude
Rises 16:50:29 0° 246° (WSW) 2,990 13.3 -6.5°
Reaches altitude 10° 16:52:52 10° 242° (WSW) 2,077 11.6 -6.9°
Maximum altitude 16:57:32 53° 166° (SSE) 808 7.7 -7.5°
Drops below altitude 10° 17:02:11 10° 90° (E) 2,067 9.2 -8.2°
Enters shadow 17:02:35 - 89° (E) 2,222 9.3 -8.3°
Sets 17:04:33 0° 86° (E) 2,975 - -8.5°
